Hourly Data Report for October 02, 2014

All times are specified in Local Standard Time (LST). Add 1 hour to adjust for Daylight Saving Time where and when it is observed.

SAINT JOHN A
NEW BRUNSWICK

45°18'58.000" N
65°53'24.000" W
108.80 m
8104901
71609
YSJ

Download Data

Hourly Data (October 2014)
Hourly Data Report for October 2, 2014
Temp Definition
°C
Dew Point Temp Definition
°C
Rel Hum Definition
%
Wind Dir Definition
10's deg

Wind Spd Definition
km/h
Visibility Definition
km
Stn Press Definition
kPa
Hmdx Definition


Wind Chill Definition


Weather Definition


TIME
00:00 Legend Double Dagger 9.0 6.6 85 4 15 24.1 101.01     LegendNANA
01:00 Legend Double Dagger 8.0 6.2 88 2 16 24.1 100.96     LegendNANA
02:00 Legend Double Dagger 6.0 5.1 94 4 8 24.1 101.03     Mainly Clear
03:00 Legend Double Dagger 5.1 5.0 99 3 9 24.1 100.97     LegendNANA
04:00 Legend Double Dagger 4.8 4.7 99 3 9 24.1 100.96     LegendNANA
05:00 Legend Double Dagger 4.8 4.8 100 35 13 24.1 101.01     Mainly Clear
06:00 Legend Double Dagger 5.9 5.9 100 36 13 6.4 101.10     Fog
07:00 Legend Double Dagger 6.2 6.2 100 3 14 2.4 101.10     Fog
08:00 Legend Double Dagger 7.2 6.9 98 2 20 24.1 101.11     Mostly Cloudy
09:00 Legend Double Dagger 10.4 7.1 80 1 21 24.1 101.10     LegendNANA
10:00 Legend Double Dagger 13.0 6.9 66 3 18 24.1 101.07     LegendNANA
11:00 Legend Double Dagger 14.4 5.8 56 3 26 24.1 101.03     Mostly Cloudy
12:00 Legend Double Dagger 15.8 6.9 55 3 25 24.1 101.00     LegendNANA
13:00 Legend Double Dagger 16.5 6.7 52 3 27 24.1 100.92     LegendNANA
14:00 Legend Double Dagger 17.0 5.7 47 3 32 24.1 100.87     Mostly Cloudy
15:00 Legend Double Dagger 17.5 5.2 44 1 24 24.1 100.85     LegendNANA
16:00 Legend Double Dagger 16.4 5.2 47 1 22 24.1 100.86     LegendNANA
17:00 Legend Double Dagger 14.9 5.5 53 2 25 24.1 100.90     Mostly Cloudy
18:00 Legend Double Dagger 12.3 6.2 66 3 16 24.1 100.93     LegendNANA
19:00 Legend Double Dagger 10.4 6.2 75 3 15 24.1 100.98     LegendNANA
20:00 Legend Double Dagger 9.7 6.8 82 2 13 24.1 101.00     Mostly Cloudy
21:00 Legend Double Dagger 9.3 7.4 88 2 21 24.1 100.97     LegendNANA
22:00 Legend Double Dagger 9.1 7.7 91 2 19 24.1 100.95     LegendNANA
23:00 Legend Double Dagger 8.2 7.6 96 2 14 24.1 100.90     Clear

Notes on Data Quality.

Legend

  • E = Estimated
  • M = Missing
  • NA = Not Available
  • ‡ = Partner data that is not subject to review by the National Climate Archives
Date modified: